User: anonymous   Login
Location: Sabalos
(43.2860°N, 0.1414°E)
Time: 06:36:43
(UTC+00:00)
Language:

Cosmos 1727 Rocket - Orbit

View from above orbital plane
View from above orbital plane
View from above satellite
View from above satellite

Ground track
Ground track

The orbit data is extracted from the following two-line orbital elements,

1 16511U 86008B   20273.50225074 -.00000026 +00000-0 -43203-4 0  9991
2 16511 082.9447 049.7423 0024475 166.6969 260.1762 13.75798913741069
Epoch (UTC): 29 September 2020 12:03:14
Eccentricity: 0.0024475
inclination: 82.9447°
perigee height: 961 km
apogee height: 997 km
right ascension of ascending node: 49.7423°
argument of perigee: 166.6969°
revolutions per day: 13.75798913
mean anomaly at epoch: 260.1762°
orbit number at epoch: 74106

The dashed part of the orbit path shows where the satellite is in the earth's shadow,  

DLR